Location: Stuttgart
(48.8069°N, 9.1544°E)
Time: 03:08:46
(UTC+02:00)

Tiangong 2 - Visible Passes

Search period start: 27 May 2018 00:00
Search period end: 06 June 2018 00:00
Orbit: 382 x 385 km, 42.8° (Epoch: 26 May)

Date Brightness Start Highest point End Pass type
(mag) Time Alt. Az. Time Alt. Az. Time Alt. Az.
27 May 2.2 21:48:17 10° WSW 21:51:01 27° S 21:53:45 10° ESE visible
27 May 2.9 23:24:52 10° WSW 23:26:31 18° SW 23:26:31 18° SW visible
28 May 2.5 22:24:58 10° WSW 22:27:35 23° S 22:29:17 15° SSE visible
29 May 3.1 23:02:10 10° WSW 23:04:03 15° SSW 23:04:12 15° SSW visible
30 May 2.8 22:02:04 10° WSW 22:04:26 19° SSW 22:06:48 10° SSE visible
31 May 3.5 22:40:09 10° SW 22:40:49 10° SSW 22:41:27 10° SSW visible
